Regional Weather Roundup
Issued by NWS Charleston, WV

Home | Current Version | Previous Version | Text Only | Print | Product List | Glossary On
Versions: 1 2 3 4 5 6 7 8 9 10 11 12 13 14 15 16 17 18 19 20 21 22 23 24 25 26 27 28 29 30 31 32 33 34 35 36 37 38 39 40 41 42 43 44 45 46 47 48 49 50
000
ASUS41 KRLX 041710
RWRRLX
West Virginia Regional Weather Roundup
National Weather Service Charleston WV
100 PM EDT WED MAY 04 2016

Note: "fair" indicates few or no clouds below 12,000 feet with no
significant weather and/or obstructions to visibility.

WVZ003-041800-
Northern Panhandle of West Virginia

CITY           SKY/WX    TMP DP  RH WIND       PRES   REMARKS
WHEELING       PTSUNNY   60  44  55 VRB7      29.66F
$$

WVZ009-041800-
Northwest West Virginia

CITY           SKY/WX    TMP DP  RH WIND       PRES   REMARKS
PARKERSBURG    PTSUNNY   61  46  57 SW7       29.69F
$$

WVZ006-041800-
Western West Virginia

CITY           SKY/WX    TMP DP  RH WIND       PRES   REMARKS
HUNTINGTON     LGT RAIN  61  45  55 SW7       29.69F
$$

WVZ015-041800-
West Central West Virginia

CITY           SKY/WX    TMP DP  RH WIND       PRES   REMARKS
CHARLESTON     PTSUNNY   61  43  51 SW7       29.70F
$$

WVZ022-031-041800-
North Central West Virginia

CITY           SKY/WX    TMP DP  RH WIND       PRES   REMARKS
CLARKSBURG     CLOUDY    57  50  77 SE8       29.68F
MORGANTOWN     CLOUDY    58  44  60 E3        29.69F
$$

WVZ025-035-042-045-041800-
Southern West Virginia

CITY           SKY/WX    TMP DP  RH WIND       PRES   REMARKS
BECKLEY        PTSUNNY   56  41  57 W7        29.73S
LOGAN          NOT AVBL
BLUEFIELD      PTSUNNY   53  40  61 W13G22    29.74F
LEWISBURG      CLOUDY    54  41  62 NW9G17    29.71F
$$

WVZ047-041800-
Northern Mountains of West Virginia

CITY           SKY/WX    TMP DP  RH WIND       PRES   REMARKS
ELKINS         CLOUDY    54  44  69 CALM      29.71F
$$

WVZ052-041800-
Eastern Panhandle of West Virginia

CITY           SKY/WX    TMP DP  RH WIND       PRES   REMARKS
MARTINSBURG    CLOUDY    60  53  77 E7        29.67F
PETERSBURG       N/A     61  51  68 CALM      29.68F
$$



USA.gov is the U.S. government's official web portal to all federal, state and local government web resources and services.